Location: Namasale
(1.5000°N, 32.6167°E)
Time: 17:15:49
(UTC+00:00)

Vanguard 1 Rocket - Pass Details

Date: 19 April 2021
Orbit: 651 x 4225 km, 34.3° (Epoch: 17 May)

Event Time Altitude Azimuth Distance (km) Brightness Sun altitude
Rises 16:22:58 0° 344° (NNW) 3,398 10.7 -8.1°
Reaches altitude 10° 16:26:30 10° 11° (N) 2,834 10.0 -9.0°
Maximum altitude 16:30:08 14° 43° (NE) 2,937 9.7 -9.9°
Drops below altitude 10° 16:34:48 10° 73° (ENE) 3,874 10.1 -11.0°
Enters shadow 16:35:42 - 77° (ENE) 4,106 10.2 -11.2°
Sets 16:41:23 0° 94° (E) 5,717 - -12.6°
